Skip Page Navigation
NASA JPL Caltech
NASA Logo - Jet Propulsion Laboratory + View the NASA Portal
+ Center for Near-Earth Object Studies
JPL Home Earth Solar System Stars & Galaxies Technology
JPL Solar System Dynamics
BODIES ORBITS EPHEMERIDES TOOLS PHYSICAL DATA DISCOVERY FAQ SITE MAP
IMPORTANT: The SSD Announcement email list is now available. Major changes are coming in the near future, including possible hostname and/or URL changes. To be notified of such changes, subscribe to this email list.

Please visit this page for more details.


JPL Small-Body Database Browser
Search: [ help ]  
536920 (2015 FM345)
Classification: TransNeptunian Object          SPK-ID: 2536920
Ephemeris | Orbit Diagram | Orbital Elements | Physical Parameters | Discovery Circumstances ]

[ show orbit diagram ]
Orbital Elements at Epoch 2458600.5 (2019-Apr-27.0) TDB
Reference: JPL 5 (heliocentric ecliptic J2000)
 Element Value Uncertainty (1-sigma)   Units 
e .03260967922358345 3.8668e-05  
a 42.85015442415163 0.0015015 au
q 41.45282463369903 0.0015368 au
i 17.10826341219465 5.6926e-05 deg
node 103.5605730521811 0.00043128 deg
peri 59.70236910628446 0.056189 deg
M 56.97675905221413 0.052799 deg
tp 2442385.302031269684
(1974-Dec-03.80203127)
14.523 TDB
period 102453.5506379608
280.50
5.3849
0.01474
d
yr
n .003513787445709214 1.8468e-07 deg/d
Q 44.24748421460423 0.0015504 au
  Orbit Determination Parameters
   # obs. used (total)      97  
   data-arc span      2933 days (8.03 yr)  
   first obs. used      2010-05-10  
   last obs. used      2018-05-21  
   planetary ephem.      DE431  
   SB-pert. ephem.      SB431-N16  
   condition code      3  
   norm. resid. RMS      .68884  
   source      ORB  
   producer      Otto Matic  
   solution date      2019-May-30 11:34:25  

Additional Information
 Earth MOID = 40.4948 au 
 Jupiter MOID = 36.202 au 
 T_jup = 5.604 
[ show covariance matrix ]

Ephemeris | Orbit Diagram | Orbital Elements | Physical Parameters | Discovery Circumstances ]

Physical Parameter Table
Parameter Symbol Value Units Sigma Reference Notes
absolute magnitude H 6.3   n/a E2018Y78  

536920 (2015 FM345)          Discovered 2010-May-10 by Pan-STARRS 1 at Haleakala
Reference: Last Updated: 2019-05-29
Ephemeris | Orbit Diagram | Orbital Elements | Physical Parameters | Discovery Circumstances ]
ABOUT SSD CREDITS/AWARDS PRIVACY/COPYRIGHT GLOSSARY LINKS
FirstGov
(server date/time)  
NASA Home Page
Site Manager:   Ryan S. Park
Webmaster  Alan B. Chamberlin